Погода в Лесновке

Россия / Республика Крым     45°09′00″N   33°36′37″E
темп.,
°C
ветер,
м/с
пор.,
м/с
влажн.,
%
обл.,
%
осадки,
мм/ч
давл.,
гПа
погр.,
м
20 апреля, вт
вт2000:00+10всв4888100 0.2 1010239
03:00+10св1296100 4.8 1008143
06:00+10зсз2397100 6.4 1005209
09:00+11ю81091100 7.2 1004702
12:00+11ююз10138549 0.1 1004885
15:00+10юз14178898 0.2 1004951
18:00+10з6986100 0.3 1008630
21:00+9зюз589396 0.4 1011312
21 апреля, ср
ср2100:00+9зюз61189100 0.0 1013374
03:00+9юз4791100 0.1 1014141
06:00+9зюз4690100 0.2 1015113
09:00+12юз567482 0.4 1017457
12:00+13юз677014 0.6 1018807
15:00+13юз68715 0.8 1018841
18:00+11юз56775 0.0 1019464
21:00+9ююз46910 0.0 1020140
22 апреля, чт
чт2200:00+9ююз35914 0.0 102094
03:00+9ююз46924 0.0 1021125
06:00+8ююз46915 0.0 1021110
09:00+12ююз45735 0.0 1022440
12:00+13юз56665 0.0 1022600
15:00+14юз67655 0.0 1022599
18:00+12юз56703 0.0 1022370
21:00+10ююз45830 0.0 102381
23 апреля, пт
пт2300:00+9ююз46850 0.0 1022110
03:00+9ююз47880 0.0 1022123
06:00+9ю468896 0.0 1022102
09:00+12ю476699 0.0 1021358
12:00+14ююз676072 0.0 1021595
15:00+14юз81062100 0.0 1020476
18:00+12юз71271100 0.0 1019395
21:00+10юз511826 0.0 1019237
24 апреля, сб
сб2400:00+10ююз712845 0.0 1019366
03:00+9ююз589362 0.0 1018193
06:00+10з239295 0.1 1019114
09:00+11сз457267 0.1 1020596
12:00+14зсз44495 0.0 10201074
15:00+15з55422 0.0 10201500
18:00+13зсз54469 0.0 1020873
21:00+8сз4572100 0.0 1021131